QPF
0.00 0.00 0.00 0.00 0.00 0.00 0.00 0.01 0.03 0.03 0.03 0.02 0.01 0.00 0.00 0.00 0.00 0.00 0.00 0.00 0.00 0.00
0.00 0.00 0.00 0.00 0.00 0.00 0.00 0.01 0.02 0.03 0.03 0.02 0.01 0.01 0.00 0.00 0.00 0.00 0.00 0.00 0.00 0.00
0.00 0.00 0.00 0.00 0.00 0.00 0.00 0.00 0.00 0.01 0.01 0.01 0.00 0.00 0.00 0.00 0.00 0.00 0.00 0.00 0.00 0.00
0.00 0.00 0.00 0.00 0.00 0.00 0.00 0.00 0.00 0.01 0.03 0.04 0.05 0.05 0.05 0.03 0.01 0.01 0.00 0.00 0.00 0.00
0.00 0.00 0.00 0.00 0.00 0.00 0.00 0.00 0.00 0.01 0.03 0.04 0.05 0.08 0.11 0.11 0.09 0.05 0.03 0.01 0.00 0.00
0.01 0.00 0.00 0.00 0.00 0.00 0.00 0.00 0.00 0.00 0.02 0.03 0.06 0.08 0.08 0.10 0.11 0.10 0.06 0.03 0.01 0.02
0.00 0.00 0.01 0.01 0.00 0.00 0.00 0.00 0.00 0.00 0.01 0.03 0.05 0.06 0.07 0.08 0.08 0.08 0.08 0.08 0.09 0.12
0.00 0.00 0.00 0.01 0.01 0.01 0.01 0.00 0.01 0.01 0.01 0.01 0.02 0.02 0.03 0.05 0.07 0.11 0.14 0.16 0.18 0.19
0.00 0.00 0.00 0.00 0.00 0.00 0.01 0.01 0.01 0.01 0.01 0.02 0.03 0.05 0.08 0.09 0.11 0.14 0.17 0.17 0.17 0.14
0.01 0.01 0.00 0.01 0.02 0.02 0.03 0.03 0.02 0.01 0.01 0.02 0.02 0.04 0.09 0.12 0.15 0.17 0.16 0.13 0.12 0.09
0.01 0.01 0.01 0.01 0.00 0.00 0.00 0.00 0.00 0.00 0.00 0.00 0.01 0.02 0.04 0.06 0.09 0.11 0.10 0.08 0.05 0.02
0.00 0.00 0.00 0.00 0.00 0.00 0.00 0.00 0.00 0.00 0.00 0.00 0.00 0.03 0.05 0.07 0.08 0.07 0.06 0.05 0.03 0.02
0.00 0.00 0.00 0.00 0.00 0.00 0.00 0.00 0.00 0.00 0.01 0.03 0.04 0.08 0.09 0.09 0.08 0.08 0.06 0.05 0.03 0.02
0.00 0.00 0.00 0.00 0.00 0.00 0.00 0.00 0.00 0.00 0.01 0.03 0.05 0.07 0.11 0.12 0.13 0.09 0.06 0.05 0.05 0.04
MSLP
1000.74 1001.70 1002.47 1003.25 1004.11 1005.18 1006.09 1007.00 1008.11 1009.24 1010.54 1011.58 1012.07 1012.73 1013.33 1013.94 1014.32 1014.68 1015.20 1016.13 1016.46 1017.28
1000.35 1001.08 1001.83 1002.58 1003.44 1004.60 1005.72 1006.77 1007.86 1008.65 1009.85 1010.82 1012.00 1012.46 1013.13 1013.80 1014.34 1014.74 1014.86 1015.20 1015.85 1016.81
999.73 1000.58 1001.27 1002.18 1003.09 1004.25 1005.58 1006.74 1007.78 1008.72 1009.52 1010.47 1011.33 1012.20 1012.90 1013.78 1014.54 1015.26 1016.08 1016.73 1016.44 1016.97
999.71 1000.44 1001.13 1001.96 1002.77 1003.78 1005.08 1006.30 1007.50 1008.49 1009.34 1010.63 1011.28 1012.09 1012.52 1013.38 1014.18 1015.66 1016.30 1017.08 1017.00 1017.50
999.57 1000.38 1001.32 1001.97 1002.75 1003.62 1004.74 1006.16 1007.20 1008.33 1009.53 1010.74 1011.10 1012.52 1013.39 1014.00 1014.88 1015.24 1016.48 1017.55 1017.69 1017.72
999.85 1000.92 1001.54 1002.41 1003.36 1004.08 1004.78 1005.96 1007.34 1008.46 1009.44 1010.44 1011.32 1012.42 1013.40 1013.96 1014.48 1015.69 1015.94 1018.03 1017.71 1017.64
1000.40 1001.35 1002.12 1002.94 1003.75 1004.51 1005.19 1006.09 1007.20 1008.38 1009.19 1010.02 1011.06 1011.94 1012.72 1013.72 1014.52 1015.38 1016.03 1016.86 1017.03 1017.38
1001.18 1002.14 1002.97 1003.84 1004.72 1005.20 1006.10 1006.76 1007.59 1008.54 1009.39 1010.24 1010.99 1011.76 1012.52 1013.31 1014.27 1014.75 1015.72 1016.46 1017.39 1017.66
1001.74 1002.81 1003.77 1004.58 1004.82 1005.58 1006.52 1007.10 1007.81 1008.70 1009.28 1009.95 1010.70 1011.46 1012.15 1013.02 1014.10 1014.68 1015.30 1016.09 1016.71 1017.44
1002.62 1003.76 1005.01 1005.51 1005.98 1006.48 1007.03 1007.39 1007.89 1008.88 1009.43 1010.05 1010.67 1011.42 1012.08 1012.78 1013.92 1014.98 1015.52 1016.39 1017.04 1017.59
1002.96 1004.17 1005.15 1005.84 1006.58 1007.27 1007.86 1008.15 1008.35 1008.91 1009.46 1010.25 1010.88 1011.53 1012.38 1013.15 1013.78 1014.78 1015.67 1016.46 1016.88 1017.70
1002.64 1003.84 1005.03 1006.11 1006.64 1007.26 1008.15 1008.08 1008.33 1008.88 1009.66 1009.80 1010.82 1011.52 1012.35 1013.16 1013.87 1014.89 1015.55 1016.13 1016.76 1017.58
1002.20 1003.60 1004.42 1005.10 1006.20 1006.65 1007.71 1008.29 1008.52 1008.94 1009.16 1009.44 1010.30 1011.00 1011.91 1012.88 1013.60 1014.43 1015.31 1016.01 1016.81 1017.14
1002.74 1003.82 1004.14 1005.22 1005.99 1006.77 1007.38 1007.79 1008.44 1009.05 1009.44 1009.58 1009.94 1010.33 1011.08 1012.04 1012.67 1013.59 1014.60 1015.37 1016.31 1016.98
Thickness
5658 5652 5648 5642 5639 5634 5630 5625 5617 5609 5600 5593 5588 5584 5580 5577 5576 5575 5571 5562 5560 5554
5648 5644 5640 5636 5631 5625 5619 5614 5607 5601 5592 5586 5577 5575 5570 5566 5563 5560 5559 5556 5552 5544
5640 5635 5631 5626 5621 5616 5607 5601 5594 5588 5582 5575 5569 5564 5559 5552 5545 5541 5535 5529 5533 5528
5627 5623 5620 5617 5612 5608 5599 5592 5585 5577 5568 5559 5556 5552 5548 5542 5529 5519 5519 5513 5512 5510
5614 5609 5604 5601 5599 5596 5589 5579 5573 5565 5554 5545 5542 5532 5525 5520 5510 5512 5507 5493 5490 5494
5599 5592 5588 5583 5579 5577 5575 5568 5558 5549 5541 5534 5528 5519 5511 5506 5498 5494 5492 5477 5479 5481
5581 5575 5571 5567 5563 5560 5558 5553 5545 5535 5530 5523 5514 5509 5504 5496 5490 5483 5478 5472 5467 5468
5557 5552 5549 5544 5541 5540 5534 5531 5526 5519 5514 5509 5503 5499 5494 5488 5481 5477 5469 5461 5456 5453
5541 5536 5530 5525 5528 5522 5515 5513 5509 5503 5499 5496 5494 5489 5484 5478 5470 5465 5460 5453 5448 5441
5518 5512 5504 5503 5502 5500 5497 5496 5495 5489 5487 5482 5479 5473 5470 5465 5456 5448 5447 5441 5435 5431
5500 5493 5487 5485 5482 5478 5476 5475 5478 5476 5474 5470 5467 5462 5456 5452 5449 5441 5434 5428 5427 5422
5490 5484 5477 5471 5469 5467 5462 5467 5468 5466 5461 5464 5454 5451 5444 5439 5435 5426 5422 5418 5415 5410
5487 5478 5476 5473 5468 5465 5459 5456 5456 5454 5455 5454 5446 5442 5434 5425 5421 5416 5409 5406 5400 5400
5474 5467 5470 5463 5459 5455 5452 5449 5445 5442 5440 5441 5437 5433 5427 5419 5415 5408 5400 5395 5390 5386